TimeEST,TemperatureF,Dew PointF,Humidity,Sea Level PressureIn,VisibilityMPH,Wind Direction,Wind SpeedMPH,Gust SpeedMPH,PrecipitationIn,Events,Conditions,WindDirDegrees,DateUTC
12:15 AM,31.3,9.3,40,30.12,10.0,Calm,Calm,-,N/A,,Clear,0,2013-01-21 05:15:00
12:35 AM,30.7,9.9,42,30.12,10.0,Calm,Calm,-,N/A,,Clear,0,2013-01-21 05:35:00
12:55 AM,30.7,9.0,40,30.12,10.0,Calm,Calm,-,N/A,,Clear,0,2013-01-21 05:55:00
1:15 AM,31.3,9.5,40,30.11,10.0,Calm,Calm,-,N/A,,Clear,0,2013-01-21 06:15:00
1:35 AM,29.7,11.8,48,30.11,10.0,Calm,Calm,-,N/A,,Clear,0,2013-01-21 06:35:00
1:55 AM,30.2,11.1,45,30.11,10.0,Calm,Calm,-,N/A,,Clear,0,2013-01-21 06:55:00
2:15 AM,29.8,11.5,46,30.11,10.0,Calm,Calm,-,N/A,,Clear,0,2013-01-21 07:15:00
2:35 AM,29.7,10.4,45,30.11,10.0,Calm,Calm,-,N/A,,Clear,0,2013-01-21 07:35:00
2:55 AM,28.8,12.2,50,30.11,10.0,Calm,Calm,-,N/A,,Clear,0,2013-01-21 07:55:00
3:15 AM,30.2,11.1,45,30.10,10.0,Calm,Calm,-,N/A,,Clear,0,2013-01-21 08:15:00
3:35 AM,28.8,12.2,50,30.10,10.0,Calm,Calm,-,N/A,,Clear,0,2013-01-21 08:35:00
3:55 AM,28.9,12.4,50,30.09,10.0,Calm,Calm,-,N/A,,Clear,0,2013-01-21 08:55:00
4:15 AM,28.4,13.1,53,30.08,10.0,Calm,Calm,-,N/A,,Clear,0,2013-01-21 09:15:00
4:35 AM,28.0,14.2,56,30.07,10.0,SW,3.5,-,N/A,,Scattered Clouds,230,2013-01-21 09:35:00
4:55 AM,28.4,14.0,55,30.07,10.0,Calm,Calm,-,N/A,,Overcast,0,2013-01-21 09:55:00
5:15 AM,27.7,15.3,60,30.07,10.0,Calm,Calm,-,N/A,,Scattered Clouds,0,2013-01-21 10:15:00
5:35 AM,27.9,15.3,59,30.07,10.0,Calm,Calm,-,N/A,,Clear,0,2013-01-21 10:35:00
5:55 AM,28.0,14.9,58,30.07,10.0,Calm,Calm,-,N/A,,Scattered Clouds,0,2013-01-21 10:55:00
6:15 AM,26.8,17.4,68,30.07,10.0,West,3.5,-,N/A,,Mostly Cloudy,270,2013-01-21 11:15:00
6:35 AM,27.5,16.5,63,30.07,10.0,Calm,Calm,-,N/A,,Overcast,0,2013-01-21 11:35:00
6:55 AM,28.4,14.9,57,30.08,10.0,Calm,Calm,-,N/A,,Overcast,0,2013-01-21 11:55:00
7:15 AM,27.9,16.9,63,30.07,10.0,Calm,Calm,-,N/A,,Scattered Clouds,0,2013-01-21 12:15:00
7:35 AM,27.9,16.3,62,30.08,10.0,Calm,Calm,-,N/A,,Mostly Cloudy,0,2013-01-21 12:35:00
7:55 AM,28.0,15.8,60,30.08,10.0,Calm,Calm,-,N/A,,Overcast,0,2013-01-21 12:55:00
8:15 AM,28.2,16.0,60,30.08,10.0,Calm,Calm,-,N/A,,Overcast,0,2013-01-21 13:15:00
8:35 AM,28.0,17.2,64,30.09,10.0,Calm,Calm,-,N/A,,Overcast,0,2013-01-21 13:35:00
8:55 AM,28.2,16.9,63,30.09,10.0,West,4.6,-,N/A,,Overcast,260,2013-01-21 13:55:00
9:15 AM,28.2,16.5,62,30.10,10.0,West,4.6,-,N/A,,Overcast,260,2013-01-21 14:15:00
9:35 AM,29.3,16.5,59,30.10,10.0,WSW,5.8,-,N/A,,Overcast,240,2013-01-21 14:35:00
9:55 AM,30.0,16.3,57,30.10,10.0,West,5.8,-,N/A,,Overcast,260,2013-01-21 14:55:00
10:15 AM,31.5,15.4,52,30.10,10.0,WSW,9.2,-,N/A,,Overcast,240,2013-01-21 15:15:00
10:35 AM,32.2,15.6,51,30.09,10.0,WSW,10.4,-,N/A,,Mostly Cloudy,240,2013-01-21 15:35:00
10:55 AM,32.9,15.1,48,30.09,10.0,WSW,8.1,-,N/A,,Mostly Cloudy,250,2013-01-21 15:55:00
11:15 AM,34.9,14.2,43,30.08,10.0,WSW,8.1,-,N/A,,Overcast,250,2013-01-21 16:15:00
11:35 AM,35.6,11.3,37,30.07,10.0,WSW,11.5,-,N/A,,Mostly Cloudy,250,2013-01-21 16:35:00
11:55 AM,35.8,9.9,34,30.06,10.0,WSW,10.4,-,N/A,,Scattered Clouds,250,2013-01-21 16:55:00
12:15 PM,36.1,12.4,38,30.04,10.0,West,15.0,21.9,N/A,,Clear,260,2013-01-21 17:15:00
12:35 PM,36.5,12.7,38,30.03,10.0,West,13.8,23.0,N/A,,Clear,260,2013-01-21 17:35:00
12:55 PM,36.9,13.3,38,30.02,10.0,WNW,12.7,21.9,N/A,,Clear,290,2013-01-21 17:55:00
1:15 PM,36.7,12.2,37,30.01,10.0,WSW,17.3,31.1,N/A,,Clear,250,2013-01-21 18:15:00
1:35 PM,37.4,13.1,37,30.00,10.0,WNW,15.0,24.2,N/A,,Clear,290,2013-01-21 18:35:00
1:55 PM,37.9,12.6,35,30.00,10.0,West,5.8,18.4,N/A,,Clear,280,2013-01-21 18:55:00
2:15 PM,38.1,11.1,33,30.00,10.0,West,11.5,20.7,N/A,,Clear,280,2013-01-21 19:15:00
2:35 PM,38.1,11.1,33,30.00,10.0,West,15.0,20.7,N/A,,Clear,260,2013-01-21 19:35:00
2:55 PM,36.5,7.5,30,30.02,10.0,WNW,18.4,29.9,N/A,,Clear,290,2013-01-21 19:55:00
3:15 PM,36.5,7.9,30,30.01,10.0,West,13.8,23.0,N/A,,Clear,280,2013-01-21 20:15:00
3:35 PM,36.1,8.4,32,30.02,10.0,WNW,10.4,20.7,N/A,,Clear,290,2013-01-21 20:35:00
3:55 PM,35.4,9.0,33,30.03,10.0,WNW,12.7,21.9,N/A,,Clear,290,2013-01-21 20:55:00
4:15 PM,34.5,8.4,34,30.04,10.0,West,17.3,26.5,N/A,,Clear,270,2013-01-21 21:15:00
4:35 PM,33.8,6.8,32,30.04,10.0,West,12.7,25.3,N/A,,Clear,270,2013-01-21 21:35:00
4:55 PM,33.3,7.9,35,30.04,10.0,West,9.2,18.4,N/A,,Clear,270,2013-01-21 21:55:00
5:15 PM,32.4,7.7,36,30.05,10.0,West,12.7,19.6,N/A,,Clear,280,2013-01-21 22:15:00
5:35 PM,31.6,7.3,36,30.05,10.0,WNW,12.7,21.9,N/A,,Clear,290,2013-01-21 22:35:00
5:55 PM,30.7,7.5,38,30.07,10.0,WNW,10.4,20.7,N/A,,Clear,290,2013-01-21 22:55:00
6:15 PM,30.2,8.6,40,30.07,10.0,WNW,10.4,21.9,N/A,,Clear,290,2013-01-21 23:15:00
6:35 PM,29.5,7.5,40,30.07,10.0,WNW,10.4,20.7,N/A,,Clear,290,2013-01-21 23:35:00
6:55 PM,29.1,7.9,41,30.07,10.0,West,11.5,20.7,N/A,,Clear,270,2013-01-21 23:55:00
7:15 PM,28.8,7.7,41,30.07,10.0,WNW,15.0,18.4,N/A,,Clear,290,2013-01-22 00:15:00
7:35 PM,28.2,7.0,41,30.08,10.0,WNW,8.1,17.3,N/A,,Clear,290,2013-01-22 00:35:00
7:55 PM,28.0,6.8,41,30.09,10.0,West,8.1,-,N/A,,Clear,280,2013-01-22 00:55:00
8:15 PM,27.1,4.5,38,30.09,10.0,NW,10.4,-,N/A,,Clear,320,2013-01-22 01:15:00
8:35 PM,25.9,3.2,38,30.10,10.0,WNW,8.1,18.4,N/A,,Clear,300,2013-01-22 01:35:00
8:55 PM,25.3,3.2,39,30.11,10.0,NW,9.2,18.4,N/A,,Scattered Clouds,310,2013-01-22 01:55:00
9:15 PM,25.2,3.6,40,30.12,10.0,NW,8.1,-,N/A,,Overcast,310,2013-01-22 02:15:00
9:35 PM,24.4,3.2,40,30.12,10.0,NW,12.7,21.9,N/A,,Overcast,310,2013-01-22 02:35:00
9:55 PM,23.9,3.0,41,30.12,10.0,NW,11.5,18.4,N/A,,Overcast,310,2013-01-22 02:55:00
10:15 PM,23.2,3.6,43,30.14,10.0,NW,8.1,-,N/A,,Overcast,320,2013-01-22 03:15:00
10:35 PM,22.5,3.7,45,30.15,10.0,WNW,12.7,20.7,N/A,,Overcast,300,2013-01-22 03:35:00
10:55 PM,22.1,3.9,46,30.15,10.0,West,9.2,-,N/A,,Overcast,280,2013-01-22 03:55:00
11:15 PM,21.2,3.7,47,30.16,10.0,NW,5.8,-,N/A,,Mostly Cloudy,310,2013-01-22 04:15:00
11:35 PM,20.7,3.2,47,30.17,10.0,WNW,8.1,20.7,N/A,,Clear,300,2013-01-22 04:35:00
11:55 PM,20.1,3.2,48,30.16,10.0,NW,6.9,-,N/A,,Clear,320,2013-01-22 04:55:00